Year,Month,Day,Hour,Minute,Value (Times are PST for temperature in C)
2011,04,29,00,00,3.80
2011,04,29,00,01,3.80
2011,04,29,00,02,3.70
2011,04,29,00,03,3.70
2011,04,29,00,04,3.70
2011,04,29,00,05,3.70
2011,04,29,00,06,3.70
2011,04,29,00,07,3.70
2011,04,29,00,08,3.70
2011,04,29,00,09,3.70
2011,04,29,00,10,3.70
2011,04,29,00,11,3.70
2011,04,29,00,12,3.70
2011,04,29,00,13,3.70
2011,04,29,00,14,3.60
2011,04,29,00,15,3.60
2011,04,29,00,16,3.60
2011,04,29,00,17,3.60
2011,04,29,00,18,3.60
2011,04,29,00,19,3.60
2011,04,29,00,20,3.60
2011,04,29,00,21,3.60
2011,04,29,00,22,3.60
2011,04,29,00,23,3.60
2011,04,29,00,24,3.60
2011,04,29,00,25,3.60
2011,04,29,00,26,3.60
2011,04,29,00,27,3.60
2011,04,29,00,28,3.60
2011,04,29,00,29,3.60
2011,04,29,00,30,3.60
2011,04,29,00,31,3.60
2011,04,29,00,32,3.60
2011,04,29,00,33,3.60
2011,04,29,00,34,3.60
2011,04,29,00,35,3.60
2011,04,29,00,36,3.60
2011,04,29,00,37,3.60
2011,04,29,00,38,3.60
2011,04,29,00,39,3.60
2011,04,29,00,40,3.70
2011,04,29,00,41,3.70
2011,04,29,00,42,3.70
2011,04,29,00,43,3.70
2011,04,29,00,44,3.70
2011,04,29,00,45,3.70
2011,04,29,00,46,3.70
2011,04,29,00,47,3.70
2011,04,29,00,48,3.70
2011,04,29,00,49,3.70
2011,04,29,00,50,3.70
2011,04,29,00,51,3.80
2011,04,29,00,52,3.80
2011,04,29,00,53,3.80
2011,04,29,00,54,3.80
2011,04,29,00,55,3.80
2011,04,29,00,56,3.80
2011,04,29,00,57,3.90
2011,04,29,00,58,3.90
2011,04,29,00,59,3.90
2011,04,29,01,00,3.90
2011,04,29,01,01,3.90
2011,04,29,01,02,3.90
2011,04,29,01,03,4.00
2011,04,29,01,04,4.00
2011,04,29,01,05,4.10
2011,04,29,01,06,4.10
2011,04,29,01,07,4.20
2011,04,29,01,08,4.30
2011,04,29,01,09,4.30
2011,04,29,01,10,4.40
2011,04,29,01,11,4.50
2011,04,29,01,12,4.50
2011,04,29,01,13,4.60
2011,04,29,01,14,4.60
2011,04,29,01,15,4.60
2011,04,29,01,16,4.60
2011,04,29,01,17,4.60
2011,04,29,01,18,4.60
2011,04,29,01,19,4.60
2011,04,29,01,20,4.60
2011,04,29,01,21,4.60
2011,04,29,01,22,4.60
2011,04,29,01,23,4.60
2011,04,29,01,24,4.70
2011,04,29,01,25,4.70
2011,04,29,01,26,4.80
2011,04,29,01,27,4.80
2011,04,29,01,28,4.80
2011,04,29,01,29,4.90
2011,04,29,01,30,5.00
2011,04,29,01,31,5.10
2011,04,29,01,32,5.10
2011,04,29,01,33,5.10
2011,04,29,01,34,5.20
2011,04,29,01,35,5.20
2011,04,29,01,36,5.20
2011,04,29,01,37,5.20
2011,04,29,01,38,5.20
2011,04,29,01,39,5.30
2011,04,29,01,40,5.30
2011,04,29,01,41,5.30
2011,04,29,01,42,5.40
2011,04,29,01,43,5.40
2011,04,29,01,44,5.50
2011,04,29,01,45,5.50
2011,04,29,01,46,5.50
2011,04,29,01,47,5.60
2011,04,29,01,48,5.60
2011,04,29,01,49,5.60
2011,04,29,01,50,5.60
2011,04,29,01,51,5.60
2011,04,29,01,52,5.60
2011,04,29,01,53,5.60
2011,04,29,01,54,5.60
2011,04,29,01,55,5.60
2011,04,29,01,56,5.60
2011,04,29,01,57,5.60
2011,04,29,01,58,5.60
2011,04,29,01,59,5.60
2011,04,29,02,00,5.60
2011,04,29,02,01,5.60
2011,04,29,02,02,5.60
2011,04,29,02,03,5.60
2011,04,29,02,04,5.60
2011,04,29,02,05,5.60
2011,04,29,02,06,5.60
2011,04,29,02,07,5.60
2011,04,29,02,08,5.60
2011,04,29,02,09,5.60
2011,04,29,02,10,5.60
2011,04,29,02,11,5.50
2011,04,29,02,12,5.50
2011,04,29,02,13,5.50
2011,04,29,02,14,5.50
2011,04,29,02,15,5.50
2011,04,29,02,16,5.40
2011,04,29,02,17,5.40
2011,04,29,02,18,5.40
2011,04,29,02,19,5.40
2011,04,29,02,20,5.40
2011,04,29,02,21,5.40
2011,04,29,02,22,5.40
2011,04,29,02,23,5.30
2011,04,29,02,24,5.30
2011,04,29,02,25,5.30
2011,04,29,02,26,5.30
2011,04,29,02,27,5.30
2011,04,29,02,28,5.20
2011,04,29,02,29,5.20
2011,04,29,02,30,5.20
2011,04,29,02,31,5.20
2011,04,29,02,32,5.20
2011,04,29,02,33,5.10
2011,04,29,02,34,5.10
2011,04,29,02,35,5.10
2011,04,29,02,36,5.10
2011,04,29,02,37,5.00
2011,04,29,02,38,5.00
2011,04,29,02,39,5.00
2011,04,29,02,40,4.90
2011,04,29,02,41,4.90
2011,04,29,02,42,4.90
2011,04,29,02,43,4.90
2011,04,29,02,44,4.90
2011,04,29,02,45,4.90
2011,04,29,02,46,4.90
2011,04,29,02,47,4.90
2011,04,29,02,48,4.90
2011,04,29,02,49,4.80
2011,04,29,02,50,4.80
2011,04,29,02,51,4.80
2011,04,29,02,52,4.80
2011,04,29,02,53,4.80
2011,04,29,02,54,4.70
2011,04,29,02,55,4.70
2011,04,29,02,56,4.70
2011,04,29,02,57,4.70
2011,04,29,02,58,4.70
2011,04,29,02,59,4.60
2011,04,29,03,00,4.60
2011,04,29,03,01,4.60
2011,04,29,03,02,4.60
2011,04,29,03,03,4.60
2011,04,29,03,04,4.60
2011,04,29,03,05,4.60
2011,04,29,03,06,4.60
2011,04,29,03,07,4.60
2011,04,29,03,08,4.60
2011,04,29,03,09,4.60
2011,04,29,03,10,4.60
2011,04,29,03,11,4.60
2011,04,29,03,12,4.60
2011,04,29,03,13,4.60
2011,04,29,03,14,4.60
2011,04,29,03,15,4.60
2011,04,29,03,16,4.60
2011,04,29,03,17,4.60
2011,04,29,03,18,4.60
2011,04,29,03,19,4.70
2011,04,29,03,20,4.70
2011,04,29,03,21,4.70
2011,04,29,03,22,4.70
2011,04,29,03,23,4.70
2011,04,29,03,24,4.70
2011,04,29,03,25,4.70
2011,04,29,03,26,4.80
2011,04,29,03,27,4.80
2011,04,29,03,28,4.80
2011,04,29,03,29,4.90
2011,04,29,03,30,4.90
2011,04,29,03,31,4.90
2011,04,29,03,32,4.90
2011,04,29,03,33,5.00
2011,04,29,03,34,5.00
2011,04,29,03,35,5.00
2011,04,29,03,36,5.10
2011,04,29,03,37,5.10
2011,04,29,03,38,5.10
2011,04,29,03,39,5.10
2011,04,29,03,40,5.10
2011,04,29,03,41,5.10
2011,04,29,03,42,5.10
2011,04,29,03,43,5.10
2011,04,29,03,44,5.10
2011,04,29,03,45,5.10
2011,04,29,03,46,5.10
2011,04,29,03,47,5.10
2011,04,29,03,48,5.20
2011,04,29,03,49,5.20
2011,04,29,03,50,5.20
2011,04,29,03,51,5.20
2011,04,29,03,52,5.20
2011,04,29,03,53,5.30
2011,04,29,03,54,5.30
2011,04,29,03,55,5.30
2011,04,29,03,56,5.40
2011,04,29,03,57,5.40
2011,04,29,03,58,5.40
2011,04,29,03,59,5.40
2011,04,29,04,00,5.50
2011,04,29,04,01,5.50
2011,04,29,04,02,5.40
2011,04,29,04,03,5.50
2011,04,29,04,04,5.50
2011,04,29,04,05,5.50
2011,04,29,04,06,5.50
2011,04,29,04,07,5.50
2011,04,29,04,08,5.50
2011,04,29,04,09,5.50
2011,04,29,04,10,5.50
2011,04,29,04,11,5.50
2011,04,29,04,12,5.50
2011,04,29,04,13,5.50
2011,04,29,04,14,5.60
2011,04,29,04,15,5.60
2011,04,29,04,16,5.60
2011,04,29,04,17,5.60
2011,04,29,04,18,5.60
2011,04,29,04,19,5.60
2011,04,29,04,20,5.60
2011,04,29,04,21,5.60
2011,04,29,04,22,5.60
2011,04,29,04,23,5.60
2011,04,29,04,24,5.60
2011,04,29,04,25,5.60
2011,04,29,04,26,5.60
2011,04,29,04,27,5.60
2011,04,29,04,28,5.60
2011,04,29,04,29,5.60
2011,04,29,04,30,5.60
2011,04,29,04,31,5.60
2011,04,29,04,32,5.60
2011,04,29,04,33,5.60
2011,04,29,04,34,5.60
2011,04,29,04,35,5.60
2011,04,29,04,36,5.60
2011,04,29,04,37,5.50
2011,04,29,04,38,5.50
2011,04,29,04,39,5.60
2011,04,29,04,40,5.60
2011,04,29,04,41,5.60
2011,04,29,04,42,5.50
2011,04,29,04,43,5.50
2011,04,29,04,44,5.50
2011,04,29,04,45,5.50
2011,04,29,04,46,5.50
2011,04,29,04,47,5.50
2011,04,29,04,48,5.40
2011,04,29,04,49,5.40
2011,04,29,04,50,5.40
2011,04,29,04,51,5.40
2011,04,29,04,52,5.40
2011,04,29,04,53,5.30
2011,04,29,04,54,5.30
2011,04,29,04,55,5.30
2011,04,29,04,56,5.20
2011,04,29,04,57,5.20
2011,04,29,04,58,5.20
2011,04,29,04,59,5.20
2011,04,29,05,00,5.20
2011,04,29,05,01,5.20
2011,04,29,05,02,5.20
2011,04,29,05,03,5.20
2011,04,29,05,04,5.20
2011,04,29,05,05,5.20
2011,04,29,05,06,5.10
2011,04,29,05,07,5.10
2011,04,29,05,08,5.10
2011,04,29,05,09,5.10
2011,04,29,05,10,5.10
2011,04,29,05,11,5.10
2011,04,29,05,12,5.10
2011,04,29,05,13,5.00
2011,04,29,05,14,5.00
2011,04,29,05,15,5.00
2011,04,29,05,16,4.90
2011,04,29,05,17,4.90
2011,04,29,05,18,4.90
2011,04,29,05,19,4.90
2011,04,29,05,20,4.80
2011,04,29,05,21,4.80
2011,04,29,05,22,4.80
2011,04,29,05,23,4.80
2011,04,29,05,24,4.80
2011,04,29,05,25,4.80
2011,04,29,05,26,4.80
2011,04,29,05,27,4.70
2011,04,29,05,28,4.70
2011,04,29,05,29,4.70
2011,04,29,05,30,4.70
2011,04,29,05,31,4.70
2011,04,29,05,32,4.70
2011,04,29,05,33,4.70
2011,04,29,05,34,4.70
2011,04,29,05,35,4.70
2011,04,29,05,36,4.70
2011,04,29,05,37,4.60
2011,04,29,05,38,4.60
2011,04,29,05,39,4.60
2011,04,29,05,40,4.60
2011,04,29,05,41,4.60
2011,04,29,05,42,4.60
2011,04,29,05,43,4.60
2011,04,29,05,44,4.60
2011,04,29,05,45,4.50
2011,04,29,05,46,4.50
2011,04,29,05,47,4.50
2011,04,29,05,48,4.40
2011,04,29,05,49,4.40
2011,04,29,05,50,4.40
2011,04,29,05,51,4.40
2011,04,29,05,52,4.40
2011,04,29,05,53,4.30
2011,04,29,05,54,4.30
2011,04,29,05,55,4.30
2011,04,29,05,56,4.30
2011,04,29,05,57,4.30
2011,04,29,05,58,4.30
2011,04,29,05,59,4.20
2011,04,29,06,00,4.20
2011,04,29,06,01,4.20
2011,04,29,06,02,4.20
2011,04,29,06,03,4.20
2011,04,29,06,04,4.20
2011,04,29,06,05,4.20
2011,04,29,06,06,4.20
2011,04,29,06,07,4.20
2011,04,29,06,08,4.20
2011,04,29,06,09,4.20
2011,04,29,06,10,4.10
2011,04,29,06,11,4.10
2011,04,29,06,12,4.10
2011,04,29,06,13,4.10
2011,04,29,06,14,4.10
2011,04,29,06,15,4.10
2011,04,29,06,16,4.10
2011,04,29,06,17,4.10
2011,04,29,06,18,4.00
2011,04,29,06,19,4.00
2011,04,29,06,20,4.00
2011,04,29,06,21,4.00
2011,04,29,06,22,4.00
2011,04,29,06,23,4.00
2011,04,29,06,24,3.90
2011,04,29,06,25,3.90
2011,04,29,06,26,3.90
2011,04,29,06,27,3.90
2011,04,29,06,28,3.90
2011,04,29,06,29,3.90
2011,04,29,06,30,3.90
2011,04,29,06,31,3.90
2011,04,29,06,32,3.90
2011,04,29,06,33,3.90
2011,04,29,06,34,3.90
2011,04,29,06,35,3.90
2011,04,29,06,36,3.90
2011,04,29,06,37,3.90
2011,04,29,06,38,3.90
2011,04,29,06,39,3.90
2011,04,29,06,40,4.00
2011,04,29,06,41,4.00
2011,04,29,06,42,4.00
2011,04,29,06,43,4.00
2011,04,29,06,44,4.10
2011,04,29,06,45,4.10
2011,04,29,06,46,4.10
2011,04,29,06,47,4.10
2011,04,29,06,48,4.10
2011,04,29,06,49,4.10
2011,04,29,06,50,4.10
2011,04,29,06,51,4.10
2011,04,29,06,52,4.10
2011,04,29,06,53,4.10
2011,04,29,06,54,4.10
2011,04,29,06,55,4.20
2011,04,29,06,56,4.20
2011,04,29,06,57,4.20
2011,04,29,06,58,4.20
2011,04,29,06,59,4.20
2011,04,29,07,00,4.20
2011,04,29,07,01,4.20
2011,04,29,07,02,4.20
2011,04,29,07,03,4.30
2011,04,29,07,04,4.30
2011,04,29,07,05,4.30
2011,04,29,07,06,4.40
2011,04,29,07,07,4.40
2011,04,29,07,08,4.50
2011,04,29,07,09,4.50
2011,04,29,07,10,4.60
2011,04,29,07,11,4.60
2011,04,29,07,12,4.70
2011,04,29,07,13,4.70
2011,04,29,07,14,4.80
2011,04,29,07,15,4.80
2011,04,29,07,16,4.80
2011,04,29,07,17,4.80
2011,04,29,07,18,4.90
2011,04,29,07,19,4.90
2011,04,29,07,20,5.00
2011,04,29,07,21,5.10
2011,04,29,07,22,5.20
2011,04,29,07,23,5.30
2011,04,29,07,24,5.40
2011,04,29,07,25,5.50
2011,04,29,07,26,5.60
2011,04,29,07,27,5.60
2011,04,29,07,28,5.70
2011,04,29,07,29,5.80
2011,04,29,07,30,5.90
2011,04,29,07,31,5.90
2011,04,29,07,32,6.00
2011,04,29,07,33,6.10
2011,04,29,07,34,6.10
2011,04,29,07,35,6.20
2011,04,29,07,36,6.20
2011,04,29,07,37,6.30
2011,04,29,07,38,6.30
2011,04,29,07,39,6.30
2011,04,29,07,40,6.40
2011,04,29,07,41,6.50
2011,04,29,07,42,6.50
2011,04,29,07,43,6.60
2011,04,29,07,44,6.60
2011,04,29,07,45,6.60
2011,04,29,07,46,6.60
2011,04,29,07,47,6.60
2011,04,29,07,48,6.70
2011,04,29,07,49,6.70
2011,04,29,07,50,6.70
2011,04,29,07,51,6.70
2011,04,29,07,52,6.70
2011,04,29,07,53,6.70
2011,04,29,07,54,6.80
2011,04,29,07,55,6.80
2011,04,29,07,56,6.80
2011,04,29,07,57,6.80
2011,04,29,07,58,6.90
2011,04,29,07,59,6.90
2011,04,29,08,00,6.90
2011,04,29,08,01,7.00
2011,04,29,08,02,7.00
2011,04,29,08,03,7.10
2011,04,29,08,04,7.10
2011,04,29,08,05,7.10
2011,04,29,08,06,7.20
2011,04,29,08,07,7.20
2011,04,29,08,08,7.20
2011,04,29,08,09,7.20
2011,04,29,08,10,7.20
2011,04,29,08,11,7.20
2011,04,29,08,12,7.20
2011,04,29,08,13,7.30
2011,04,29,08,14,7.30
2011,04,29,08,15,7.30
2011,04,29,08,16,7.40
2011,04,29,08,17,7.40
2011,04,29,08,18,7.40
2011,04,29,08,19,7.40
2011,04,29,08,20,7.40
2011,04,29,08,21,7.50
2011,04,29,08,22,7.50
2011,04,29,08,23,7.50
2011,04,29,08,24,7.60
2011,04,29,08,25,7.60
2011,04,29,08,26,7.60
2011,04,29,08,27,7.60
2011,04,29,08,28,7.60
2011,04,29,08,29,7.60
2011,04,29,08,30,7.60
2011,04,29,08,31,7.60
2011,04,29,08,32,7.60
2011,04,29,08,33,7.60
2011,04,29,08,34,7.60
2011,04,29,08,35,7.70
2011,04,29,08,36,7.70
2011,04,29,08,37,7.70
2011,04,29,08,38,7.70
2011,04,29,08,39,7.70
2011,04,29,08,40,7.70
2011,04,29,08,41,7.80
2011,04,29,08,42,7.80
2011,04,29,08,43,7.80
2011,04,29,08,44,7.80
2011,04,29,08,45,7.80
2011,04,29,08,46,7.90
2011,04,29,08,47,7.90
2011,04,29,08,48,7.90
2011,04,29,08,49,8.00
2011,04,29,08,50,8.00
2011,04,29,08,51,8.00
2011,04,29,08,52,8.00
2011,04,29,08,53,8.00
2011,04,29,08,54,8.00
2011,04,29,08,55,8.10
2011,04,29,08,56,8.00
2011,04,29,08,57,8.00
2011,04,29,08,58,8.10
2011,04,29,08,59,8.10
2011,04,29,09,00,8.10
2011,04,29,09,01,8.10
2011,04,29,09,02,8.10
2011,04,29,09,03,8.10
2011,04,29,09,04,8.10
2011,04,29,09,05,8.10
2011,04,29,09,06,8.10
2011,04,29,09,07,8.10
2011,04,29,09,08,8.10
2011,04,29,09,09,8.10
2011,04,29,09,10,8.20
2011,04,29,09,11,8.20
2011,04,29,09,12,8.20
2011,04,29,09,13,8.20
2011,04,29,09,14,8.20
2011,04,29,09,15,8.20
2011,04,29,09,16,8.20
2011,04,29,09,17,8.20
2011,04,29,09,18,8.20
2011,04,29,09,19,8.20
2011,04,29,09,20,8.20
2011,04,29,09,21,8.20
2011,04,29,09,22,8.20
2011,04,29,09,23,8.20
2011,04,29,09,24,8.20
2011,04,29,09,25,8.30
2011,04,29,09,26,8.30
2011,04,29,09,27,8.30
2011,04,29,09,28,8.30
2011,04,29,09,29,8.30
2011,04,29,09,30,8.40
2011,04,29,09,31,8.40
2011,04,29,09,32,8.40
2011,04,29,09,33,8.50
2011,04,29,09,34,8.50
2011,04,29,09,35,8.60
2011,04,29,09,36,8.70
2011,04,29,09,37,8.70
2011,04,29,09,38,8.70
2011,04,29,09,39,8.80
2011,04,29,09,40,8.80
2011,04,29,09,41,8.90
2011,04,29,09,42,8.90
2011,04,29,09,43,8.90
2011,04,29,09,44,8.90
2011,04,29,09,45,8.90
2011,04,29,09,46,8.90
2011,04,29,09,47,9.00
2011,04,29,09,48,9.10
2011,04,29,09,49,9.10
2011,04,29,09,50,9.10
2011,04,29,09,51,9.10
2011,04,29,09,52,9.20
2011,04,29,09,53,9.20
2011,04,29,09,54,9.20
2011,04,29,09,55,9.20
2011,04,29,09,56,9.20
2011,04,29,09,57,9.20
2011,04,29,09,58,9.10
2011,04,29,09,59,9.10
2011,04,29,10,00,9.00
2011,04,29,10,01,9.00
2011,04,29,10,02,9.00
2011,04,29,10,03,9.00
2011,04,29,10,04,9.10
2011,04,29,10,05,9.10
2011,04,29,10,06,9.10
2011,04,29,10,07,9.10
2011,04,29,10,08,9.20
2011,04,29,10,09,9.20
2011,04,29,10,10,9.20
2011,04,29,10,11,9.20
2011,04,29,10,12,9.10
2011,04,29,10,13,9.00
2011,04,29,10,14,9.00
2011,04,29,10,15,8.90
2011,04,29,10,16,8.80
2011,04,29,10,17,8.80
2011,04,29,10,18,8.70
2011,04,29,10,19,8.70
2011,04,29,10,20,8.70
2011,04,29,10,21,8.80
2011,04,29,10,22,8.80
2011,04,29,10,23,8.80
2011,04,29,10,24,8.90
2011,04,29,10,25,9.00
2011,04,29,10,26,9.10
2011,04,29,10,27,9.20
2011,04,29,10,28,9.30
2011,04,29,10,29,9.40
2011,04,29,10,30,9.50
2011,04,29,10,31,9.70
2011,04,29,10,32,9.80
2011,04,29,10,33,10.00
2011,04,29,10,34,10.10
2011,04,29,10,35,10.20
2011,04,29,10,36,10.20
2011,04,29,10,37,10.20
2011,04,29,10,38,10.30
2011,04,29,10,39,10.30
2011,04,29,10,40,10.30
2011,04,29,10,41,10.40
2011,04,29,10,42,10.40
2011,04,29,10,43,10.40
2011,04,29,10,44,10.40
2011,04,29,10,45,10.40
2011,04,29,10,46,10.30
2011,04,29,10,47,10.30
2011,04,29,10,48,10.20
2011,04,29,10,49,10.10
2011,04,29,10,50,10.10
2011,04,29,10,51,10.10
2011,04,29,10,52,10.10
2011,04,29,10,53,10.10
2011,04,29,10,54,10.00
2011,04,29,10,55,9.90
2011,04,29,10,56,9.90
2011,04,29,10,57,9.90
2011,04,29,10,58,9.80
2011,04,29,10,59,9.80
2011,04,29,11,00,9.70
2011,04,29,11,01,9.70
2011,04,29,11,02,9.70
2011,04,29,11,03,9.70
2011,04,29,11,04,9.70
2011,04,29,11,05,9.60
2011,04,29,11,06,9.50
2011,04,29,11,07,9.40
2011,04,29,11,08,9.30
2011,04,29,11,09,9.30
2011,04,29,11,10,9.20
2011,04,29,11,11,9.10
2011,04,29,11,12,9.10
2011,04,29,11,13,9.10
2011,04,29,11,14,9.20
2011,04,29,11,15,9.20
2011,04,29,11,16,9.30
2011,04,29,11,17,9.40
2011,04,29,11,18,9.50
2011,04,29,11,19,9.60
2011,04,29,11,20,9.60
2011,04,29,11,21,9.70
2011,04,29,11,22,9.70
2011,04,29,11,23,9.80
2011,04,29,11,24,9.80
2011,04,29,11,25,9.90
2011,04,29,11,26,9.90
2011,04,29,11,27,9.80
2011,04,29,11,28,9.80
2011,04,29,11,29,9.80
2011,04,29,11,30,9.80
2011,04,29,11,31,9.80
2011,04,29,11,32,9.70
2011,04,29,11,33,9.80
2011,04,29,11,34,9.80
2011,04,29,11,35,9.90
2011,04,29,11,36,9.80
2011,04,29,11,37,9.80
2011,04,29,11,38,9.80
2011,04,29,11,39,9.80
2011,04,29,11,40,9.70
2011,04,29,11,41,9.70
2011,04,29,11,42,9.70
2011,04,29,11,43,9.60
2011,04,29,11,44,9.50
2011,04,29,11,45,9.40
2011,04,29,11,46,9.30
2011,04,29,11,47,9.30
2011,04,29,11,48,9.30
2011,04,29,11,49,9.20
2011,04,29,11,50,9.20
2011,04,29,11,51,9.20
2011,04,29,11,52,9.20
2011,04,29,11,53,9.20
2011,04,29,11,54,9.20
2011,04,29,11,55,9.20
2011,04,29,11,56,9.30
2011,04,29,11,57,9.30
2011,04,29,11,58,9.40
2011,04,29,11,59,9.40
2011,04,29,12,00,9.40
2011,04,29,12,01,9.50
2011,04,29,12,02,9.50
2011,04,29,12,03,9.60
2011,04,29,12,04,9.60
2011,04,29,12,05,9.60
2011,04,29,12,06,9.70
2011,04,29,12,07,9.70
2011,04,29,12,08,9.70
2011,04,29,12,09,9.80
2011,04,29,12,10,9.90
2011,04,29,12,11,10.00
2011,04,29,12,12,10.10
2011,04,29,12,13,10.20
2011,04,29,12,14,10.40
2011,04,29,12,15,10.50
2011,04,29,12,16,10.60
2011,04,29,12,17,10.60
2011,04,29,12,18,10.60
2011,04,29,12,19,10.50
2011,04,29,12,20,10.40
2011,04,29,12,21,10.40
2011,04,29,12,22,10.30
2011,04,29,12,23,10.30
2011,04,29,12,24,10.30
2011,04,29,12,25,10.20
2011,04,29,12,26,10.30
2011,04,29,12,27,10.40
2011,04,29,12,28,10.50
2011,04,29,12,29,10.60
2011,04,29,12,30,10.70
2011,04,29,12,31,10.80
2011,04,29,12,32,10.90
2011,04,29,12,33,11.00
2011,04,29,12,34,11.10
2011,04,29,12,35,11.10
2011,04,29,12,36,11.00
2011,04,29,12,37,11.00
2011,04,29,12,38,11.00
2011,04,29,12,39,10.90
2011,04,29,12,40,10.90
2011,04,29,12,41,10.90
2011,04,29,12,42,10.90
2011,04,29,12,43,10.90
2011,04,29,12,44,11.00
2011,04,29,12,45,11.10
2011,04,29,12,46,11.20
2011,04,29,12,47,11.30
2011,04,29,12,48,11.40
2011,04,29,12,49,11.50
2011,04,29,12,50,11.60
2011,04,29,12,51,11.60
2011,04,29,12,52,11.60
2011,04,29,12,53,11.60
2011,04,29,12,54,11.50
2011,04,29,12,55,11.50
2011,04,29,12,56,11.40
2011,04,29,12,57,11.30
2011,04,29,12,58,11.30
2011,04,29,12,59,11.20
2011,04,29,13,00,11.20
2011,04,29,13,01,11.10
2011,04,29,13,02,11.10
2011,04,29,13,03,11.10
2011,04,29,13,04,11.10
2011,04,29,13,05,11.10
2011,04,29,13,06,11.20
2011,04,29,13,07,11.30
2011,04,29,13,08,11.30
2011,04,29,13,09,11.30
2011,04,29,13,10,11.30
2011,04,29,13,11,11.40
2011,04,29,13,12,11.40
2011,04,29,13,13,11.50
2011,04,29,13,14,11.60
2011,04,29,13,15,11.80
2011,04,29,13,16,12.00
2011,04,29,13,17,12.00
2011,04,29,13,18,12.10
2011,04,29,13,19,12.10
2011,04,29,13,20,12.10
2011,04,29,13,21,12.00
2011,04,29,13,22,11.90
2011,04,29,13,23,11.90
2011,04,29,13,24,11.90
2011,04,29,13,25,11.90
2011,04,29,13,26,11.90
2011,04,29,13,27,11.90
2011,04,29,13,28,11.90
2011,04,29,13,29,11.90
2011,04,29,13,30,11.80
2011,04,29,13,31,11.80
2011,04,29,13,32,11.80
2011,04,29,13,33,11.80
2011,04,29,13,34,11.70
2011,04,29,13,35,11.70
2011,04,29,13,36,11.50
2011,04,29,13,37,11.40
2011,04,29,13,38,11.40
2011,04,29,13,39,11.40
2011,04,29,13,40,11.40
2011,04,29,13,41,11.30
2011,04,29,13,42,11.30
2011,04,29,13,43,11.30
2011,04,29,13,44,11.30
2011,04,29,13,45,11.30
2011,04,29,13,46,11.20
2011,04,29,13,47,11.10
2011,04,29,13,48,11.00
2011,04,29,13,49,11.00
2011,04,29,13,50,10.90
2011,04,29,13,51,10.80
2011,04,29,13,52,10.70
2011,04,29,13,53,10.60
2011,04,29,13,54,10.50
2011,04,29,13,55,10.50
2011,04,29,13,56,10.50
2011,04,29,13,57,10.50
2011,04,29,13,58,10.50
2011,04,29,13,59,10.50
2011,04,29,14,00,10.50
2011,04,29,14,01,10.50
2011,04,29,14,02,10.50
2011,04,29,14,03,10.60
2011,04,29,14,04,10.60
2011,04,29,14,05,10.60
2011,04,29,14,06,10.70
2011,04,29,14,07,10.70
2011,04,29,14,08,10.70
2011,04,29,14,09,10.80
2011,04,29,14,10,10.80
2011,04,29,14,11,10.80
2011,04,29,14,12,10.80
2011,04,29,14,13,10.80
2011,04,29,14,14,10.80
2011,04,29,14,15,10.70
2011,04,29,14,16,10.70
2011,04,29,14,17,10.70
2011,04,29,14,18,10.60
2011,04,29,14,19,10.60
2011,04,29,14,20,10.50
2011,04,29,14,21,10.40
2011,04,29,14,22,10.40
2011,04,29,14,23,10.40
2011,04,29,14,24,10.40
2011,04,29,14,25,10.30
2011,04,29,14,26,10.30
2011,04,29,14,27,10.30
2011,04,29,14,28,10.30
2011,04,29,14,29,10.30
2011,04,29,14,30,10.40
2011,04,29,14,31,10.50
2011,04,29,14,32,10.50
2011,04,29,14,33,10.60
2011,04,29,14,34,10.60
2011,04,29,14,35,10.70
2011,04,29,14,36,10.70
2011,04,29,14,37,10.80
2011,04,29,14,38,10.80
2011,04,29,14,39,10.80
2011,04,29,14,40,10.80
2011,04,29,14,41,10.80
2011,04,29,14,42,10.80
2011,04,29,14,43,10.80
2011,04,29,14,44,10.90
2011,04,29,14,45,11.00
2011,04,29,14,46,11.10
2011,04,29,14,47,11.20
2011,04,29,14,48,11.20
2011,04,29,14,49,11.20
2011,04,29,14,50,11.10
2011,04,29,14,51,11.10
2011,04,29,14,52,11.00
2011,04,29,14,53,11.00
2011,04,29,14,54,10.90
2011,04,29,14,55,10.80
2011,04,29,14,56,10.80
2011,04,29,14,57,10.80
2011,04,29,14,58,10.90
2011,04,29,14,59,10.90
2011,04,29,15,00,11.00
2011,04,29,15,01,11.00
2011,04,29,15,02,11.10
2011,04,29,15,03,11.10
2011,04,29,15,04,11.10
2011,04,29,15,05,11.10
2011,04,29,15,06,11.20
2011,04,29,15,07,11.20
2011,04,29,15,08,11.20
2011,04,29,15,09,11.30
2011,04,29,15,10,11.40
2011,04,29,15,11,11.50
2011,04,29,15,12,11.70
2011,04,29,15,13,11.80
2011,04,29,15,14,11.90
2011,04,29,15,15,12.00
2011,04,29,15,16,12.00
2011,04,29,15,17,11.90
2011,04,29,15,18,11.80
2011,04,29,15,19,11.80
2011,04,29,15,20,11.60
2011,04,29,15,21,11.40
2011,04,29,15,22,11.30
2011,04,29,15,23,11.20
2011,04,29,15,24,11.20
2011,04,29,15,25,11.10
2011,04,29,15,26,10.90
2011,04,29,15,27,10.80
2011,04,29,15,28,10.80
2011,04,29,15,29,10.70
2011,04,29,15,30,10.70
2011,04,29,15,31,10.70
2011,04,29,15,32,10.70
2011,04,29,15,33,10.70
2011,04,29,15,34,10.70
2011,04,29,15,35,10.80
2011,04,29,15,36,10.90
2011,04,29,15,37,11.00
2011,04,29,15,38,11.00
2011,04,29,15,39,10.90
2011,04,29,15,40,10.90
2011,04,29,15,41,10.90
2011,04,29,15,42,10.90
2011,04,29,15,43,11.00
2011,04,29,15,44,11.00
2011,04,29,15,45,11.10
2011,04,29,15,46,11.10
2011,04,29,15,47,11.10
2011,04,29,15,48,11.10
2011,04,29,15,49,11.10
2011,04,29,15,50,11.10
2011,04,29,15,51,11.10
2011,04,29,15,52,11.10
2011,04,29,15,53,11.10
2011,04,29,15,54,11.00
2011,04,29,15,55,11.00
2011,04,29,15,56,11.10
2011,04,29,15,57,11.10
2011,04,29,15,58,11.10
2011,04,29,15,59,11.00
2011,04,29,16,00,11.00
2011,04,29,16,01,10.90
2011,04,29,16,02,11.00
2011,04,29,16,03,11.10
2011,04,29,16,04,11.10
2011,04,29,16,05,11.20
2011,04,29,16,06,11.30
2011,04,29,16,07,11.40
2011,04,29,16,08,11.50
2011,04,29,16,09,11.60
2011,04,29,16,10,11.60
2011,04,29,16,11,11.50
2011,04,29,16,12,11.50
2011,04,29,16,13,11.50
2011,04,29,16,14,11.50
2011,04,29,16,15,11.50
2011,04,29,16,16,11.50
2011,04,29,16,17,11.60
2011,04,29,16,18,11.60
2011,04,29,16,19,11.60
2011,04,29,16,20,11.60
2011,04,29,16,21,11.60
2011,04,29,16,22,11.60
2011,04,29,16,23,11.60
2011,04,29,16,24,11.60
2011,04,29,16,25,11.60
2011,04,29,16,26,11.60
2011,04,29,16,27,11.60
2011,04,29,16,28,11.50
2011,04,29,16,29,11.40
2011,04,29,16,30,11.30
2011,04,29,16,31,11.30
2011,04,29,16,32,11.20
2011,04,29,16,33,11.20
2011,04,29,16,34,11.20
2011,04,29,16,35,11.10
2011,04,29,16,36,11.10
2011,04,29,16,37,11.10
2011,04,29,16,38,11.10
2011,04,29,16,39,11.10
2011,04,29,16,40,11.10
2011,04,29,16,41,11.10
2011,04,29,16,42,11.10
2011,04,29,16,43,11.10
2011,04,29,16,44,11.10
2011,04,29,16,45,11.10
2011,04,29,16,46,11.10
2011,04,29,16,47,11.10
2011,04,29,16,48,11.10
2011,04,29,16,49,11.10
2011,04,29,16,50,11.00
2011,04,29,16,51,11.00
2011,04,29,16,52,10.90
2011,04,29,16,53,10.90
2011,04,29,16,54,10.80
2011,04,29,16,55,10.80
2011,04,29,16,56,10.90
2011,04,29,16,57,10.90
2011,04,29,16,58,11.00
2011,04,29,16,59,11.10
2011,04,29,17,00,11.20
2011,04,29,17,01,11.40
2011,04,29,17,02,11.50
2011,04,29,17,03,11.60
2011,04,29,17,04,11.60
2011,04,29,17,05,11.70
2011,04,29,17,06,11.70
2011,04,29,17,07,11.70
2011,04,29,17,08,11.80
2011,04,29,17,09,11.70
2011,04,29,17,10,11.70
2011,04,29,17,11,11.60
2011,04,29,17,12,11.50
2011,04,29,17,13,11.40
2011,04,29,17,14,11.30
2011,04,29,17,15,11.20
2011,04,29,17,16,11.20
2011,04,29,17,17,11.20
2011,04,29,17,18,11.30
2011,04,29,17,19,11.40
2011,04,29,17,20,11.40
2011,04,29,17,21,11.40
2011,04,29,17,22,11.30
2011,04,29,17,23,11.40
2011,04,29,17,24,11.50
2011,04,29,17,25,11.50
2011,04,29,17,26,11.50
2011,04,29,17,27,11.50
2011,04,29,17,28,11.40
2011,04,29,17,29,11.40
2011,04,29,17,30,11.40
2011,04,29,17,31,11.50
2011,04,29,17,32,11.60
2011,04,29,17,33,11.70
2011,04,29,17,34,11.70
2011,04,29,17,35,11.70
2011,04,29,17,36,11.60
2011,04,29,17,37,11.50
2011,04,29,17,38,11.50
2011,04,29,17,39,11.50
2011,04,29,17,40,11.50
2011,04,29,17,41,11.50
2011,04,29,17,42,11.40
2011,04,29,17,43,11.40
2011,04,29,17,44,11.30
2011,04,29,17,45,11.30
2011,04,29,17,46,11.30
2011,04,29,17,47,11.20
2011,04,29,17,48,11.20
2011,04,29,17,49,11.20
2011,04,29,17,50,11.20